• In Hungary
  • List of Countries
  • For 7 days
  • Water Temperature
  • Satellite Maps
  • Weather Map
  • News
  • Weather Widgets
  • user-avatar
    Login

    Hourly Weather Puerto Colombia

    Today, 21 May, Monday

    Time Temperature Precipitation Wind Pressure Humidity
    00:00 +26°C° 0.1 mm 4 mps 731 mmHg 89%
    01:00 +26°C° 0 mm 4 mps 731 mmHg 90%
    02:00 +26°C° 0.2 mm 4 mps 731 mmHg 90%
    03:00 +26°C° 0.2 mm 4 mps 731 mmHg 89%
    04:00 +26°C° 0.2 mm 4 mps 731 mmHg 89%
    05:00 +26°C° 0.1 mm 4 mps 731 mmHg 86%
    06:00 +27°C° 0.1 mm 3 mps 732 mmHg 83%
    07:00 +28°C° 0 mm 3 mps 732 mmHg 78%
    08:00 +29°C° 0.2 mm 3 mps 732 mmHg 74%
    09:00 +30°C° 0.2 mm 3 mps 732 mmHg 69%
    10:00 +32°C° 0.2 mm 4 mps 732 mmHg 65%
    11:00 +32°C° 1.1 mm 4 mps 732 mmHg 69%
    12:00 +30°C° 1.1 mm 4 mps 731 mmHg 73%
    13:00 +30°C° 1.1 mm 4 mps 731 mmHg 76%
    14:00 +29°C° 1.4 mm 4 mps 731 mmHg 79%
    15:00 +29°C° 1.4 mm 4 mps 730 mmHg 81%
    16:00 +28°C° 1.4 mm 3 mps 730 mmHg 84%
    17:00 +27°C° 0.6 mm 3 mps 730 mmHg 86%
    18:00 +27°C° 0.6 mm 3 mps 730 mmHg 88%
    19:00 +26°C° 0.6 mm 3 mps 731 mmHg 90%
    20:00 +26°C° 0.1 mm 3 mps 731 mmHg 91%
    21:00 +26°C° 0.1 mm 3 mps 732 mmHg 91%
    22:00 +26°C° 0.1 mm 3 mps 732 mmHg 92%
    23:00 +26°C° 0.1 mm 3 mps 732 mmHg 92%

    Tomorrow, 22 May, Tuesday

    Time Temperature Precipitation Wind Pressure Humidity
    00:00 +25°C° 0.1 mm 3 mps 731 mmHg 93%
    01:00 +25°C° 0.1 mm 3 mps 731 mmHg 93%
    02:00 +25°C° 0.2 mm 3 mps 731 mmHg 93%
    03:00 +25°C° 0.2 mm 3 mps 731 mmHg 93%
    04:00 +25°C° 0.2 mm 3 mps 731 mmHg 93%
    05:00 +26°C° 0.3 mm 3 mps 731 mmHg 91%
    06:00 +26°C° 0.3 mm 3 mps 732 mmHg 89%
    07:00 +27°C° 0.3 mm 3 mps 732 mmHg 87%
    08:00 +28°C° 0.2 mm 3 mps 732 mmHg 80%
    09:00 +30°C° 0.2 mm 3 mps 733 mmHg 74%
    10:00 +31°C° 0.2 mm 3 mps 733 mmHg 67%
    11:00 +31°C° 0.2 mm 3 mps 732 mmHg 67%
    12:00 +32°C° 0.2 mm 4 mps 732 mmHg 67%
    13:00 +32°C° 0.2 mm 4 mps 731 mmHg 67%
    14:00 +32°C° 0.7 mm 4 mps 731 mmHg 70%
    15:00 +30°C° 0.7 mm 4 mps 730 mmHg 72%
    16:00 +30°C° 0.7 mm 4 mps 730 mmHg 75%
    17:00 +29°C° 0.2 mm 4 mps 730 mmHg 78%
    18:00 +28°C° 0.2 mm 4 mps 731 mmHg 81%
    19:00 +27°C° 0.2 mm 4 mps 731 mmHg 84%
    20:00 +27°C° 0.1 mm 4 mps 731 mmHg 85%
    21:00 +26°C° 0.1 mm 4 mps 732 mmHg 85%
    22:00 +26°C° 0.1 mm 4 mps 732 mmHg 86%
    23:00 +26°C° 0.1 mm 4 mps 732 mmHg 86%

    Day after tomorrow, 23 May, Wednesday

    Time Temperature Precipitation Wind Pressure Humidity
    00:00 +26°C° 0.1 mm 4 mps 732 mmHg 87%
    01:00 +26°C° 0.1 mm 4 mps 731 mmHg 87%
    02:00 +26°C° 0.2 mm 3 mps 731 mmHg 87%
    03:00 +25°C° 0.2 mm 3 mps 731 mmHg 87%
    04:00 +25°C° 0.2 mm 3 mps 731 mmHg 87%
    05:00 +26°C° 0.1 mm 3 mps 732 mmHg 85%
    06:00 +26°C° 0.1 mm 3 mps 732 mmHg 82%
    07:00 +27°C° 0.1 mm 3 mps 733 mmHg 80%
    08:00 +28°C° 0 mm 3 mps 733 mmHg 74%
    09:00 +29°C° 0 mm 3 mps 733 mmHg 68%
    10:00 +31°C° 0 mm 3 mps 734 mmHg 62%
    11:00 +31°C° 0 mm 3 mps 733 mmHg 62%
    12:00 +32°C° 0 mm 4 mps 732 mmHg 61%
    13:00 +32°C° 0 mm 4 mps 732 mmHg 61%
    14:00 +32°C° 0 mm 4 mps 731 mmHg 64%
    15:00 +32°C° 0 mm 4 mps 731 mmHg 66%
    16:00 +30°C° 0 mm 4 mps 730 mmHg 68%
    17:00 +29°C° 0 mm 4 mps 731 mmHg 72%
    18:00 +28°C° 0 mm 4 mps 731 mmHg 76%
    19:00 +27°C° 0 mm 4 mps 732 mmHg 80%
    20:00 +27°C° 0 mm 4 mps 732 mmHg 80%
    21:00 +27°C° 0 mm 4 mps 733 mmHg 80%
    22:00 +27°C° 0 mm 4 mps 733 mmHg 81%
    23:00 +26°C° 0 mm 4 mps 733 mmHg 81%

    24 May, Thursday

    Time Temperature Precipitation Wind Pressure Humidity
    00:00 +26°C° 0 mm 3 mps 732 mmHg 81%
    01:00 +26°C° 0 mm 3 mps 732 mmHg 80%
    02:00 +26°C° 0 mm 3 mps 732 mmHg 81%
    03:00 +26°C° 0 mm 3 mps 732 mmHg 82%
    04:00 +26°C° 0 mm 3 mps 732 mmHg 83%
    05:00 +26°C° 0 mm 3 mps 732 mmHg 80%
    06:00 +27°C° 0 mm 3 mps 733 mmHg 77%
    07:00 +28°C° 0 mm 4 mps 733 mmHg 74%
    08:00 +30°C° 0 mm 4 mps 734 mmHg 69%
    09:00 +32°C° 0 mm 4 mps 734 mmHg 64%
    10:00 +33°C° 0 mm 4 mps 734 mmHg 58%
    11:00 +34°C° 0 mm 4 mps 733 mmHg 58%
    12:00 +34°C° 0 mm 4 mps 732 mmHg 58%
    13:00 +34°C° 0 mm 4 mps 731 mmHg 58%
    14:00 +33°C° 0.1 mm 4 mps 731 mmHg 62%
    15:00 +32°C° 0.1 mm 4 mps 731 mmHg 65%
    16:00 +32°C° 0.1 mm 4 mps 730 mmHg 68%
    17:00 +30°C° 0 mm 4 mps 731 mmHg 73%
    18:00 +28°C° 0 mm 4 mps 731 mmHg 78%
    19:00 +27°C° 0 mm 4 mps 732 mmHg 83%
    20:00 +27°C° 0 mm 4 mps 732 mmHg 84%
    21:00 +27°C° 0 mm 3 mps 732 mmHg 84%
    22:00 +27°C° 0 mm 3 mps 733 mmHg 85%
    23:00 +26°C° 0 mm 3 mps 732 mmHg 84%

    25 May, Friday

    Time Temperature Precipitation Wind Pressure Humidity
    00:00 +26°C° 0 mm 3 mps 732 mmHg 84%
    01:00 +26°C° 0 mm 3 mps 731 mmHg 84%
    02:00 +26°C° 0 mm 3 mps 731 mmHg 84%
    03:00 +26°C° 0 mm 3 mps 731 mmHg 84%
    04:00 +26°C° 0 mm 3 mps 731 mmHg 84%
    05:00 +26°C° 0 mm 3 mps 732 mmHg 82%
    06:00 +27°C° 0 mm 3 mps 732 mmHg 80%
    07:00 +28°C° 0 mm 3 mps 733 mmHg 78%
    08:00 +29°C° 0 mm 3 mps 733 mmHg 73%
    09:00 +30°C° 0 mm 3 mps 733 mmHg 68%
    10:00 +33°C° 0 mm 3 mps 733 mmHg 63%
    11:00 +33°C° 0.1 mm 3 mps 732 mmHg 64%
    12:00 +33°C° 0.1 mm 4 mps 732 mmHg 64%
    13:00 +33°C° 0.1 mm 4 mps 731 mmHg 64%
    14:00 +32°C° 0.1 mm 4 mps 731 mmHg 66%
    15:00 +32°C° 0.1 mm 4 mps 730 mmHg 68%
    16:00 +30°C° 0.1 mm 3 mps 730 mmHg 71%
    17:00 +29°C° 0 mm 3 mps 730 mmHg 75%
    18:00 +28°C° 0 mm 3 mps 731 mmHg 80%
    19:00 +27°C° 0 mm 3 mps 731 mmHg 85%
    20:00 +27°C° 0 mm 3 mps 732 mmHg 86%
    21:00 +27°C° 0 mm 3 mps 732 mmHg 86%
    22:00 +26°C° 0 mm 3 mps 732 mmHg 87%
    23:00 +26°C° 0 mm 3 mps 732 mmHg 86%

    26 May, Saturday

    Time Temperature Precipitation Wind Pressure Humidity
    00:00 +26°C° 0 mm 2 mps 731 mmHg 86%
    01:00 +26°C° 0 mm 2 mps 731 mmHg 85%
    02:00 +26°C° 0 mm 2 mps 731 mmHg 84%
    03:00 +26°C° 0 mm 2 mps 731 mmHg 83%
    04:00 +26°C° 0 mm 2 mps 731 mmHg 82%
    05:00 +26°C° 0 mm 2 mps 731 mmHg 80%
    06:00 +27°C° 0 mm 3 mps 732 mmHg 78%
    07:00 +27°C° 0 mm 3 mps 732 mmHg 76%
    08:00 +29°C° 0 mm 3 mps 732 mmHg 71%
    09:00 +30°C° 0 mm 3 mps 732 mmHg 67%
    10:00 +31°C° 0 mm 3 mps 732 mmHg 63%
    11:00 +31°C° 0 mm 3 mps 732 mmHg 63%
    12:00 +33°C° 0 mm 3 mps 731 mmHg 64%
    13:00 +33°C° 0 mm 4 mps 730 mmHg 64%
    14:00 +32°C° 0.1 mm 4 mps 730 mmHg 67%
    15:00 +30°C° 0.1 mm 4 mps 730 mmHg 70%
    16:00 +30°C° 0.1 mm 3 mps 729 mmHg 73%
    17:00 +29°C° 0.1 mm 3 mps 730 mmHg 78%
    18:00 +28°C° 0.1 mm 3 mps 730 mmHg 82%
    19:00 +27°C° 0.1 mm 3 mps 731 mmHg 86%
    20:00 +27°C° 0 mm 3 mps 731 mmHg 87%
    21:00 +26°C° 0 mm 3 mps 731 mmHg 88%
    22:00 +26°C° 0 mm 3 mps 732 mmHg 88%
    23:00 +26°C° 0.1 mm 3 mps 731 mmHg 88%
    Show more